Location: McCloud Nature Park
(39.8272°N, 86.6824°W)
Time: 21:30:36
(UTC-05:00)

Amateur Radio Satellites - All Passes

Search period start: 27 March 2017 21:00
Search period end: 28 March 2017 21:00
Location: McCloud Nature Park, 39.8272°N, 86.6824°W

Satellite Date Start Highest point End Downlink Frequencies (MHz)
Time Altitude Azimuth
AO-73 27 Mar 21:10:22 21:14:48 54° 260° (W) 21:19:12 145.935
STRAND 1 27 Mar 21:11:03 21:15:29 31° 292° (WNW) 21:19:55 437.568
HO-68 27 Mar 21:17:29 21:21:40 16° 270° (W) 21:25:52 435.675
DELFI C3 27 Mar 21:24:50 21:28:38 53° 74° (ENE) 21:32:28 145.870
PRISM 27 Mar 21:25:43 21:28:09 15° 93° (E) 21:30:35 437.425
YUBILEINY 27 Mar 21:27:53 21:31:01 12° 286° (WNW) 21:34:09 435.215
BEESAT 3 27 Mar 21:30:29 21:33:31 22° 112° (ESE) 21:36:35 437.485
AO-85 27 Mar 21:35:11 21:39:11 33° 308° (NW) 21:42:58 145.980
UWE-3 27 Mar 21:43:27 21:45:58 14° 269° (W) 21:48:29 435.000/436.395/437.385
BEESAT 2 27 Mar 21:50:14 21:52:15 14° 109° (ESE) 21:54:18 435.950
Oscar 11 27 Mar 22:11:25 22:13:41 14° 269° (W) 22:15:58 .
RS-15 27 Mar 22:16:20 22:28:36 80° 243° (WSW) 22:40:16 29.354- 29.394
TIGRISAT 27 Mar 22:27:17 22:31:20 35° 97° (E) 22:35:16 435.000
FO-29 27 Mar 22:31:05 22:35:56 26° 93° (E) 22:40:24 435.910
Tancredo 1 27 Mar 22:31:24 22:33:06 14° 345° (NNW) 22:34:48 437.200
LO-87 27 Mar 22:34:51 22:38:12 37° 73° (ENE) 22:41:34 145.935 - 145.965
ISS 27 Mar 22:37:29 22:39:21 14° 345° (NNW) 22:41:13 437.550
UNISAT 6 27 Mar 22:37:42 22:42:00 51° 99° (E) 22:46:11 437.425
SO-50 27 Mar 22:45:06 22:49:03 29° 49° (NE) 22:52:59 436.795
PRISM 27 Mar 22:59:40 23:03:36 42° 288° (WNW) 23:07:32 437.425
DELFI C3 27 Mar 23:03:07 23:03:44 10° 270° (W) 23:04:21 145.870
ESTCUBE 1 27 Mar 23:04:29 23:08:47 48° 73° (ENE) 23:13:05 437.505/2401.250
BEESAT 3 27 Mar 23:07:25 23:10:56 31° 309° (NW) 23:14:30 437.485
SPROUT 27 Mar 23:10:20 23:12:40 14° 64° (ENE) 23:14:59 437.525
AIST 2D 27 Mar 23:12:54 23:14:40 13° 92° (E) 23:16:25 435.315
POLYITAN 1 27 Mar 23:21:34 23:22:30 11° 90° (E) 23:23:25 437.675
QB50P2 27 Mar 23:25:14 23:27:18 13° 91° (E) 23:29:20 145.880/145.840
BEESAT 2 27 Mar 23:25:46 23:29:36 48° 306° (NW) 23:33:29 435.950
50 SAT 27 Mar 23:26:03 23:27:10 11° 66° (ENE) 23:28:19 437.505
DUCHIFAT 1 27 Mar 23:35:17 23:37:13 13° 91° (E) 23:39:09 145.980
DX 1 27 Mar 23:44:43 23:47:29 17° 65° (ENE) 23:50:17 434.975-435.025
TIGRISAT 28 Mar 00:04:34 00:07:45 20° 294° (WNW) 00:10:53 435.000
Tancredo 1 28 Mar 00:09:41 00:10:20 10° 5° (N) 00:10:59 437.200
LO-87 28 Mar 00:10:19 00:11:49 12° 268° (W) 00:13:18 145.935 - 145.965
VELOX 1 28 Mar 00:10:33 00:14:57 78° 75° (ENE) 00:19:23 145.980
FO-29 28 Mar 00:15:44 00:21:11 38° 293° (WNW) 00:26:08 435.910
UNISAT 6 28 Mar 00:15:51 00:18:15 15° 296° (WNW) 00:20:37 437.425
ISS 28 Mar 00:15:55 00:16:57 11° 6° (N) 00:17:59 437.550
NANOSAT C BR1 28 Mar 00:20:22 00:24:28 48° 99° (E) 00:28:32 145.865
UKube-1 28 Mar 00:20:45 00:24:26 28° 69° (ENE) 00:28:08 .
SO-50 28 Mar 00:25:32 00:29:28 30° 246° (WSW) 00:33:23 436.795
EO-79 28 Mar 00:25:50 00:30:03 62° 101° (ESE) 00:34:12 145.935-145.965
RS-15 28 Mar 00:31:47 00:38:55 18° 263° (W) 00:45:56 29.354- 29.394
ESTCUBE 1 28 Mar 00:43:16 00:45:50 15° 268° (W) 00:48:24 437.505/2401.250
SPROUT 28 Mar 00:43:56 00:48:07 51° 260° (W) 00:52:20 437.525
AIST 2D 28 Mar 00:44:52 00:47:58 31° 288° (WNW) 00:51:05 435.315
POLYITAN 1 28 Mar 00:54:29 00:58:39 60° 286° (WNW) 01:02:47 437.675
50 SAT 28 Mar 00:56:35 00:59:50 39° 261° (W) 01:03:07 437.505
QB50P2 28 Mar 00:59:15 01:03:21 48° 287° (WNW) 01:07:24 145.880/145.840
DUCHIFAT 1 28 Mar 01:09:05 01:13:10 49° 287° (WNW) 01:17:11 145.980
BUGSAT 1 28 Mar 01:18:58 01:23:08 67° 101° (ESE) 01:27:13 437.445
DX 1 28 Mar 01:19:10 01:23:18 43° 261° (W) 01:27:29 434.975-435.025
ITUPSAT 1 28 Mar 01:20:45 01:21:19 10° 59° (ENE) 01:21:53 437.325
O/OREOS (USA 219) 28 Mar 01:22:29 01:24:48 14° 53° (NE) 01:27:09 437.305
Tancredo 1 28 Mar 01:44:44 01:47:22 23° 25° (NNE) 01:50:01 437.200
ISS 28 Mar 01:51:34 01:54:20 24° 25° (NNE) 01:57:06 437.550
UKube-1 28 Mar 01:56:56 02:00:25 24° 264° (W) 02:03:56 .
NANOSAT C BR1 28 Mar 01:57:29 01:59:45 14° 295° (WNW) 02:02:00 145.865
EO-79 28 Mar 02:03:47 02:05:15 12° 297° (WNW) 02:06:42 145.935-145.965
Oscar 19 28 Mar 02:17:28 02:22:40 77° 102° (ESE) 02:27:51 437.125/150
BEESAT 28 Mar 02:36:22 02:41:04 62° 73° (ENE) 02:45:47 436.000
MOZHAYETS 4 28 Mar 02:40:21 02:44:10 26° 68° (ENE) 02:47:58
Gurwin Techsat 1B 28 Mar 02:44:19 02:49:40 77° 104° (ESE) 02:54:58 435.225
ITUPSAT 1 28 Mar 02:53:35 02:58:23 90° 238° (WSW) 03:03:12 437.325
BUGSAT 1 28 Mar 02:57:05 02:57:53 10° 298° (WNW) 02:58:41 437.445
AO-7 28 Mar 02:57:08 03:02:29 18° 91° (E) 03:07:46 .
O/OREOS (USA 219) 28 Mar 03:00:07 03:04:43 68° 251° (WSW) 03:09:16 437.305
Tancredo 1 28 Mar 03:20:33 03:23:38 46° 222° (SW) 03:26:43 437.200
ISS 28 Mar 03:27:46 03:30:57 46° 223° (SW) 03:34:07 437.550
CUBESAT XI-V 28 Mar 03:37:43 03:40:44 18° 65° (ENE) 03:43:46 437.345
KKS-1 28 Mar 03:46:31 03:50:20 29° 69° (ENE) 03:54:12 437.445
Oscar 19 28 Mar 03:58:49 04:01:19 14° 299° (WNW) 04:03:49 437.125/150
ITAMSAT 1 28 Mar 04:07:55 04:13:09 77° 104° (ESE) 04:18:18 435.822/435.867
BEESAT 28 Mar 04:16:58 04:19:13 13° 269° (W) 04:21:29 436.000
MOZHAYETS 4 28 Mar 04:17:13 04:21:12 29° 264° (W) 04:25:12
STARS 28 Mar 04:18:09 04:21:53 27° 68° (ENE) 04:25:38 437.465
Gurwin Techsat 1B 28 Mar 04:26:13 04:28:55 14° 300° (WNW) 04:31:36 435.225
AO-85 28 Mar 04:27:08 04:29:41 16° 46° (NE) 04:32:17 145.980
AO-7 28 Mar 04:47:48 04:56:08 87° 292° (WNW) 05:04:26 .
CUBESAT XI-V 28 Mar 05:13:21 05:17:44 45° 261° (W) 05:22:10 437.345
KKS-1 28 Mar 05:23:08 05:26:51 25° 264° (W) 05:30:34 437.445
M-CUBED/EXP-1 PRIME 28 Mar 05:40:11 05:43:39 37° 66° (ENE) 05:47:24 437.505
BEESAT 3 28 Mar 05:48:12 05:50:17 14° 43° (NE) 05:52:20 437.485
ITAMSAT 1 28 Mar 05:49:25 05:51:56 14° 300° (WNW) 05:54:26 435.822/435.867
XW-2B 28 Mar 05:51:35 05:52:12 10° 91° (E) 05:52:50 145.730 - 145.750
NO-84 28 Mar 05:53:46 05:56:22 29° 131° (SE) 05:58:55 435.350 FM
STARS 28 Mar 05:54:26 05:58:08 26° 264° (W) 06:01:53 437.465
XW-2C 28 Mar 06:00:31 06:02:35 14° 92° (E) 06:04:38 145.795 - 145.815
AO-85 28 Mar 06:06:30 06:10:18 47° 243° (WSW) 06:14:13 145.980
CUTE-I 28 Mar 06:10:37 06:14:41 22° 94° (E) 06:18:42 437.470
DOVE 4 28 Mar 06:12:09 06:17:02 36° 96° (E) 06:21:47 437.250
YUBILEINY 28 Mar 06:32:23 06:39:16 27° 82° (E) 06:46:07 435.215
AO-7 28 Mar 06:42:15 06:47:46 20° 308° (NW) 06:53:18 .
STRAND 1 28 Mar 06:46:51 06:51:38 41° 70° (ENE) 06:56:26 437.568
XW-2F 28 Mar 06:49:52 06:53:34 59° 101° (E) 06:57:14 145.980 - 146.000
LilacSat-2 28 Mar 06:54:26 06:58:12 75° 103° (ESE) 07:01:57 437.200
HO-68 28 Mar 06:56:37 07:00:43 16° 90° (E) 07:04:49 435.675
NUDT-PHONESAT 28 Mar 07:10:01 07:13:43 90° 277° (W) 07:17:22 437.300
M-CUBED/EXP-1 PRIME 28 Mar 07:16:09 07:18:19 15° 264° (W) 07:20:37 437.505
XW-2D 28 Mar 07:17:01 07:20:41 55° 285° (WNW) 07:24:20 145.860 - 145.880
KAITUO 1B 28 Mar 07:19:37 07:23:18 66° 283° (WNW) 07:26:57 145.475/437.950
XW-2B 28 Mar 07:23:03 07:26:39 47° 287° (WNW) 07:30:16 145.730 - 145.750
BEESAT 3 28 Mar 07:24:19 07:28:19 69° 241° (WSW) 07:32:17 437.485
NO-84 28 Mar 07:31:45 07:33:55 19° 327° (NNW) 07:36:06 435.350 FM
XW-2C 28 Mar 07:33:28 07:36:54 34° 288° (WNW) 07:40:18 145.795 - 145.815
BEESAT 2 28 Mar 07:43:53 07:47:58 74° 59° (ENE) 07:51:59 435.950
CUTE-I 28 Mar 07:49:50 07:54:55 46° 289° (WNW) 07:59:58 437.470
DOVE 4 28 Mar 07:50:03 07:54:31 28° 293° (WNW) 07:58:53 437.250
UWE-3 28 Mar 07:58:10 07:58:53 10° 89° (E) 07:59:36 435.000/436.395/437.385
AAUSAT CUBESAT 2 28 Mar 08:01:10 08:03:22 14° 92° (E) 08:05:32 437.432
PRISM 28 Mar 08:16:25 08:16:58 10° 62° (ENE) 08:17:31 437.425
SEEDS 28 Mar 08:20:43 08:24:48 50° 99° (E) 08:28:53 437.485
XW-2A 28 Mar 08:26:38 08:29:58 55° 285° (WNW) 08:33:14 145.665 - 145.685
YUBILEINY 28 Mar 08:26:43 08:35:22 63° 281° (W) 08:44:01 435.215
STRAND 1 28 Mar 08:26:54 08:30:55 23° 266° (W) 08:34:58 437.568
CUTE 1.7 + AOD 2 28 Mar 08:31:04 08:35:17 77° 284° (WNW) 08:39:30 437.475
CUBEBUG 2 28 Mar 08:32:51 08:37:05 46° 99° (E) 08:41:09 437.445
ZACube-1 28 Mar 08:33:06 08:35:37 15° 92° (E) 08:38:06 437.345
PCSat 28 Mar 08:35:12 08:39:40 27° 108° (ESE) 08:44:09 145.827
HO-68 28 Mar 08:42:02 08:49:14 86° 286° (WNW) 08:56:25 435.675
FO-29 28 Mar 08:42:53 08:47:21 17° 58° (ENE) 08:51:37 435.910
AO-73 28 Mar 08:59:30 09:03:06 28° 96° (E) 09:06:40 145.935
TIGRISAT 28 Mar 09:24:48 09:28:53 31° 70° (ENE) 09:32:57 435.000
UWE-3 28 Mar 09:31:32 09:35:47 60° 285° (WNW) 09:39:53 435.000/436.395/437.385
AAUSAT CUBESAT 2 28 Mar 09:35:04 09:39:02 44° 287° (WNW) 09:42:59 437.432
UNISAT 6 28 Mar 09:35:11 09:39:36 42° 72° (ENE) 09:43:59 437.425
PRISM 28 Mar 09:47:38 09:51:40 67° 259° (WSW) 09:55:44 437.425
Oscar 11 28 Mar 09:56:47 10:01:05 73° 284° (WNW) 10:05:22 .
SEEDS 28 Mar 09:57:57 10:00:03 14° 295° (WNW) 10:02:09 437.485
ZACube-1 28 Mar 10:08:09 10:12:06 40° 288° (WNW) 10:15:58 437.345
CUBEBUG 2 28 Mar 10:10:43 10:13:15 15° 296° (WNW) 10:15:45 437.445
PCSat 28 Mar 10:17:44 10:22:50 41° 305° (NW) 10:27:59 145.827
QB50P2 28 Mar 10:19:12 10:19:30 10° 62° (ENE) 10:19:48 145.880/145.840
FO-29 28 Mar 10:23:34 10:31:24 81° 74° (ENE) 10:38:44 435.910
RS-15 28 Mar 10:31:32 10:38:12 17° 96° (E) 10:44:57 29.354- 29.394
HO-68 28 Mar 10:31:42 10:35:56 17° 305° (NW) 10:40:10 435.675
YUBILEINY 28 Mar 10:31:45 10:34:10 11° 303° (WNW) 10:36:35 435.215
AO-73 28 Mar 10:35:56 10:39:12 22° 292° (WNW) 10:42:26 145.935
DELFI C3 28 Mar 10:37:01 10:41:01 81° 283° (WNW) 10:45:00 145.870
ESTCUBE 1 28 Mar 11:00:21 11:01:15 11° 90° (E) 11:02:10 437.505/2401.250
TIGRISAT 28 Mar 11:01:36 11:05:31 26° 265° (W) 11:09:25 435.000
NANOSAT C BR1 28 Mar 11:11:33 11:15:21 32° 70° (ENE) 11:19:10 145.865
UNISAT 6 28 Mar 11:13:09 11:16:26 19° 267° (W) 11:19:44 437.425
EO-79 28 Mar 11:17:09 11:21:10 41° 72° (ENE) 11:25:13 145.935-145.965
AIST 2D 28 Mar 11:17:46 11:21:17 75° 77° (ENE) 11:24:49 435.315
LO-87 28 Mar 11:35:39 11:39:14 53° 100° (E) 11:42:47 145.935 - 145.965
POLYITAN 1 28 Mar 11:45:37 11:49:54 89° 88° (E) 11:54:13 437.675
QB50P2 28 Mar 11:50:22 11:54:38 75° 257° (WSW) 11:58:57 145.880/145.840
Oscar 19 28 Mar 11:57:51 12:00:03 13° 60° (ENE) 12:02:14 437.125/150
DUCHIFAT 1 28 Mar 11:59:24 12:03:39 78° 258° (WSW) 12:07:55 145.980
VELOX 1 28 Mar 12:02:33 12:05:14 16° 92° (E) 12:07:55 145.980
SRMSAT 28 Mar 12:03:25 12:03:38 10° 183° (S) 12:03:53 437.500
BUGSAT 1 28 Mar 12:07:29 12:11:27 41° 72° (ENE) 12:15:28 437.445
FO-29 28 Mar 12:11:37 12:16:55 20° 270° (W) 12:22:03 435.910
50 SAT 28 Mar 12:22:44 12:24:24 13° 93° (E) 12:26:04 437.505
Gurwin Techsat 1B 28 Mar 12:27:46 12:30:39 15° 61° (ENE) 12:33:31 435.225
NO-84 28 Mar 12:27:54 12:30:13 19° 33° (NNE) 12:32:38 435.350 FM
SPROUT 28 Mar 12:30:37 12:34:17 27° 96° (E) 12:37:56 437.525
ESTCUBE 1 28 Mar 12:33:59 12:38:29 69° 285° (WNW) 12:42:58 437.505/2401.250
RS-15 28 Mar 12:36:33 12:48:26 76° 116° (ESE) 13:00:45 29.354- 29.394
NANOSAT C BR1 28 Mar 12:47:55 12:51:05 20° 266° (W) 12:54:17 145.865
EO-79 28 Mar 12:54:25 12:57:06 16° 267° (W) 12:59:47 145.935-145.965
SO-50 28 Mar 13:02:32 13:02:54 10° 107° (ESE) 13:03:16 436.795
DX 1 28 Mar 13:07:58 13:11:56 32° 97° (E) 13:15:50 434.975-435.025
Oscar 19 28 Mar 13:33:32 13:38:39 80° 257° (WSW) 13:43:48 437.125/150
VELOX 1 28 Mar 13:37:38 13:41:54 46° 288° (WNW) 13:46:11 145.980
UKube-1 28 Mar 13:43:33 13:47:50 56° 101° (E) 13:52:05 .
BUGSAT 1 28 Mar 13:44:21 13:46:59 16° 267° (W) 13:49:36 437.445
ITAMSAT 1 28 Mar 13:48:49 13:51:28 14° 60° (ENE) 13:54:07 435.822/435.867
50 SAT 28 Mar 13:54:21 13:57:33 33° 288° (WNW) 14:00:44 437.505
AO-7 28 Mar 13:55:18 14:01:55 27° 56° (NE) 14:08:30 .
Gurwin Techsat 1B 28 Mar 14:04:38 14:09:56 73° 257° (WSW) 14:15:17 435.225
NO-84 28 Mar 14:04:48 14:07:52 44° 227° (SW) 14:11:13 435.350 FM
SPROUT 28 Mar 14:06:36 14:10:05 24° 292° (WNW) 14:13:32 437.525
SO-50 28 Mar 14:38:01 14:42:41 83° 301° (WNW) 14:47:19 436.795
BEESAT 28 Mar 14:38:25 14:41:22 16° 92° (E) 14:44:18 436.000
DX 1 28 Mar 14:44:30 14:47:55 22° 293° (WNW) 14:51:19 434.975-435.025
RS-15 28 Mar 14:51:04 15:02:08 39° 322° (NW) 15:13:28 29.354- 29.394
ITUPSAT 1 28 Mar 14:55:24 14:59:15 24° 95° (E) 15:03:03 437.325
UKube-1 28 Mar 15:21:15 15:23:22 13° 297° (WNW) 15:25:28 .
ITAMSAT 1 28 Mar 15:25:02 15:30:16 76° 257° (WSW) 15:35:31 435.822/435.867
O/OREOS (USA 219) 28 Mar 15:34:26 15:37:00 15° 99° (E) 15:39:36 437.305
AO-7 28 Mar 15:45:40 15:53:58 71° 255° (WSW) 16:02:17 .
MOZHAYETS 4 28 Mar 16:12:03 16:16:37 67° 102° (ESE) 16:21:07
BEESAT 28 Mar 16:14:49 16:19:25 50° 288° (WNW) 16:23:58 436.000
SO-50 28 Mar 16:21:45 16:23:51 13° 321° (NW) 16:25:57 436.795
ITUPSAT 1 28 Mar 16:32:49 16:37:06 34° 291° (WNW) 16:41:21 437.325
YUBILEINY 28 Mar 16:44:49 16:47:33 12° 57° (ENE) 16:50:17 435.215
CUBESAT XI-V 28 Mar 17:10:14 17:14:43 45° 99° (E) 17:19:12 437.345
RS-15 28 Mar 17:11:03 17:19:42 21° 355° (N) 17:28:20 29.354- 29.394
O/OREOS (USA 219) 28 Mar 17:11:33 17:15:56 49° 295° (WNW) 17:20:23 437.305
KKS-1 28 Mar 17:13:45 17:18:13 63° 102° (ESE) 17:22:37 437.445
DOVE 4 28 Mar 17:16:41 17:20:50 31° 68° (ENE) 17:25:14 437.250
PCSat 28 Mar 17:23:23 17:27:31 21° 47° (NE) 17:31:38 145.827
HO-68 28 Mar 17:27:15 17:29:56 12° 51° (NE) 17:32:36 435.675
XW-2F 28 Mar 17:30:18 17:33:26 25° 70° (ENE) 17:36:32 145.980 - 146.000
CUTE-I 28 Mar 17:31:23 17:36:10 34° 68° (ENE) 17:40:58 437.470
LilacSat-2 28 Mar 17:35:33 17:38:57 31° 72° (ENE) 17:42:21 437.200
STARS 28 Mar 17:43:33 17:47:55 57° 101° (E) 17:52:15 437.465
AO-7 28 Mar 17:45:31 17:48:03 12° 272° (W) 17:50:36 .
NUDT-PHONESAT 28 Mar 17:48:34 17:51:58 34° 72° (ENE) 17:55:22 437.300
MOZHAYETS 4 28 Mar 17:51:20 17:53:10 12° 298° (WNW) 17:55:01
XW-2D 28 Mar 17:57:02 18:00:47 58° 75° (ENE) 18:04:31 145.860 - 145.880
KAITUO 1B 28 Mar 17:58:37 18:02:12 46° 74° (ENE) 18:05:47 145.475/437.950
XW-2B 28 Mar 18:02:59 18:06:46 67° 76° (ENE) 18:10:33 145.730 - 145.750
XW-2C 28 Mar 18:13:15 18:17:04 87° 258° (WSW) 18:20:52 145.795 - 145.815
YUBILEINY 28 Mar 18:37:39 18:46:19 64° 79° (E) 18:54:56 435.215
CUBESAT XI-V 28 Mar 18:48:35 18:51:44 18° 294° (WNW) 18:54:54 437.345
KKS-1 28 Mar 18:52:11 18:54:12 13° 298° (WNW) 18:56:14 437.445
M-CUBED/EXP-1 PRIME 28 Mar 18:53:05 18:57:24 36° 102° (ESE) 19:01:42 437.505
DOVE 4 28 Mar 18:54:30 18:58:30 27° 266° (W) 19:02:43 437.250
XW-2A 28 Mar 18:57:00 19:00:12 37° 74° (ENE) 19:03:25 145.665 - 145.685
STRAND 1 28 Mar 18:59:32 19:02:14 14° 91° (E) 19:04:54 437.568
XW-2F 28 Mar 19:04:39 19:07:32 20° 265° (W) 19:10:24 145.980 - 146.000
PCSat 28 Mar 19:05:58 19:11:20 61° 246° (WSW) 19:16:39 145.827
HO-68 28 Mar 19:09:15 19:16:18 66° 70° (ENE) 19:23:22 435.675
LilacSat-2 28 Mar 19:10:49 19:13:18 16° 267° (W) 19:15:46 437.200
CUTE-I 28 Mar 19:11:30 19:16:10 30° 264° (W) 19:20:53 437.470
SEEDS 28 Mar 19:11:40 19:15:19 31° 71° (ENE) 19:18:59 437.485
STARS 28 Mar 19:21:33 19:23:45 14° 297° (WNW) 19:25:57 437.465
CUTE 1.7 + AOD 2 28 Mar 19:22:31 19:26:40 65° 75° (ENE) 19:30:50 437.475
NUDT-PHONESAT 28 Mar 19:23:53 19:26:00 15° 267° (W) 19:28:07 437.300
RS-15 28 Mar 19:27:22 19:37:57 31° 31° (NNE) 19:48:10 29.354- 29.394
ZACube-1 28 Mar 19:28:43 19:30:52 13° 64° (ENE) 19:33:00 437.345
CUBEBUG 2 28 Mar 19:29:28 19:33:50 38° 71° (ENE) 19:38:11 437.445
KAITUO 1B 28 Mar 19:35:33 19:36:28 11° 269° (W) 19:37:22 145.475/437.950
AO-73 28 Mar 19:54:10 19:57:39 22° 68° (ENE) 20:01:05 145.935
Tancredo 1 28 Mar 19:55:50 19:58:56 70° 142° (SE) 20:02:07 437.200
ISS 28 Mar 20:06:41 20:09:55 80° 142° (SE) 20:13:12 437.550
AO-85 28 Mar 20:19:38 20:24:03 62° 119° (ESE) 20:28:10 145.980
AAUSAT CUBESAT 2 28 Mar 20:23:47 20:27:52 79° 257° (WSW) 20:32:00 437.432
UWE-3 28 Mar 20:26:42 20:31:23 87° 262° (W) 20:35:59 435.000/436.395/437.385
M-CUBED/EXP-1 PRIME 28 Mar 20:27:50 20:31:36 25° 298° (WNW) 20:35:22 437.505
XW-2A 28 Mar 20:32:06 20:33:08 11° 268° (W) 20:34:10 145.665 - 145.685
YUBILEINY 28 Mar 20:35:37 20:42:22 26° 278° (W) 20:49:07 435.215
STRAND 1 28 Mar 20:36:46 20:41:49 64° 287° (WNW) 20:46:51 437.568
SEEDS 28 Mar 20:47:57 20:51:02 20° 266° (W) 20:54:08 437.485
Oscar 11 28 Mar 20:50:18 20:54:36 76° 76° (ENE) 20:58:55 .
